Back to catalog

NOAA 16 DEB

AlivePO
NORAD 41141·DEBRIS·🇺🇸 United States

Launched Sep 21, 2000 from Vandenberg Space Force Base

Loading…

Next Passes (next 24 hours)

TLE

FreshSource: Space-Track

Epoch: Sep 13, 2026, 18:10 UTC

1 41141U 00055BY  26256.75755269  .00012602  00000-0  19404-2 0  9999
2 41141  98.9670 187.1136 0036807  79.2425 281.2920 14.73154493565205

Track NOAA 16 DEB in real time with AllMySat

Download on the App Store